HARMALA Weather Reports


Display with metric or nautical units.
time (UTC)temp
F
wind
direction
speed
MPH
gust
MPH
rain 1hr
in
rain 24hr
in
rain mn
in
humidity
%
barometer
mb
20260905170453 56 0.0 0.0 0.00 0.01 0.01 76 998.8
20260905162451 56 0.0 0.0 0.00 0.01 0.01 83 998.3
20260905160453 57 0.0 0.0 0.00 0.01 0.01 76 998.0
20260905154124 57 0.0 0.0 0.00 0.00 0.00 74 997.7
20260905152124 57 0.0 0.0 0.00 0.00 0.00 79 997.5
20260905150122 57 0.0 0.0 0.00 0.00 0.00 76 997.4
20260905144453 60 0.0 0.0 0.00 0.00 0.00 70 997.0
20260905134452 61 0.0 0.0 0.00 0.00 0.00 70 996.4
20260905130456 60 0.0 0.0 0.00 0.00 0.00 69 996.5
20260905124452 60 0.0 0.0 0.00 0.00 0.00 74 996.3
20260905122452 60 0.0 0.0 0.00 0.00 0.00 71 996.2
20260905114452 60 0.0 0.0 0.00 0.00 0.00 69 995.9
20260905112454 61 0.0 0.0 0.00 0.00 0.00 66 995.7
20260905110451 60 0.0 0.0 0.00 0.00 0.00 68 995.7
20260905104453 60 0.0 0.0 0.00 0.00 0.00 65 995.6
20260905102452 60 0.0 0.0 0.00 0.00 0.00 64 995.5
20260905100452 60 0.0 0.0 0.00 0.00 0.00 61 995.1
20260905094451 60 0.0 0.0 0.00 0.00 0.00 61 995.0
20260905092451 59 0.0 0.0 0.00 0.00 0.00 62 995.1
20260905090121 59 0.0 0.0 0.00 0.07 0.00 67 995.0
20260905084453 59 0.0 0.0 0.00 0.07 0.00 72 994.9
20260905082124 58 0.0 0.0 0.00 0.07 0.00 74 994.9
20260905080121 57 0.0 0.0 0.00 0.20 0.00 77 994.9
20260905072450 55 0.0 0.0 0.00 0.20 0.00 98 994.7
20260905070123 52 0.0 0.0 0.00 0.20 0.00 100 994.7
20260905062450 51 0.0 0.0 0.00 0.20 0.00 100 994.6
20260905060451 51 0.0 0.0 0.00 0.20 0.00 100 994.5
20260905054121 51 0.0 0.0 0.00 0.20 0.00 100 994.6
20260905052450 50 0.0 0.0 0.00 0.20 0.00 100 994.6
20260905050450 49 0.0 0.0 0.00 0.20 0.00 100 994.6
20260905044452 47 0.0 0.0 0.00 0.22 0.00 100 994.6
20260905042450 46 0.0 0.0 0.00 0.22 0.00 100 994.7
20260905032451 43 0.0 0.0 0.00 0.22 0.00 100 994.8
20260905030449 43 0.0 0.0 0.00 0.22 0.00 100 994.7
20260905024450 42 0.0 0.0 0.00 0.22 0.00 100 994.8
20260905022120 43 0.0 0.0 0.00 0.22 0.00 100 994.7
20260905014451 40 0.0 0.0 0.00 0.22 0.00 99 994.6
20260905012448 41 0.0 0.0 0.00 0.22 0.00 99 994.7
20260905010450 41 0.0 0.0 0.00 0.22 0.00 99 994.7
20260905004450 41 0.0 0.0 0.00 0.22 0.00 99 994.7
20260905002452 41 0.0 0.0 0.00 0.22 0.00 99 994.7
20260904234449 42 0.0 0.0 0.00 0.22 0.00 99 994.9
20260904230449 43 0.0 0.0 0.00 0.22 0.00 99 995.2
20260904224449 43 0.0 0.0 0.00 0.22 0.00 99 995.2
20260904222449 43 0.0 0.0 0.00 0.22 0.00 99 995.2
20260904220447 44 0.0 0.0 0.00 0.22 0.00 99 995.4
20260904214449 45 0.0 0.0 0.00 0.22 0.00 99 995.6
20260904212119 45 0.0 0.0 0.00 0.22 0.00 99 995.7
20260904210119 46 0.0 0.0 0.00 0.22 0.00 99 995.8
20260904204448 46 0.0 0.0 0.00 0.22 0.22 99 995.9
20260904200450 47 0.0 0.0 0.00 0.22 0.22 98 996.0
20260904194449 48 0.0 0.0 0.00 0.22 0.22 97 996.1
20260904192448 49 0.0 0.0 0.00 0.22 0.22 97 996.2
20260904190448 50 0.0 0.0 0.00 0.22 0.22 97 996.2
20260904184448 52 0.0 0.0 0.00 0.22 0.22 96 996.3
20260904180447 54 0.0 0.0 0.00 0.22 0.22 93 996.5
20260904174448 54 0.0 0.0 0.00 0.22 0.22 91 996.5
20260904172447 55 0.0 0.0 0.00 0.22 0.22 88 996.6